BEIDOU-3 M11 (C25)

Last updated on Jan. 22, 2021, 6:27 a.m. UTC

1 43602U 18067A   21021.61524762  .00000053  00000-0  00000-0 0  9994
2 43602  54.5352 248.1998 0007534   1.9666 310.8775  1.86231446 16383
UTC
Height (km)
Latitude
Longitude
Inclination
Orbital Period
UTC large
Height (km)
Speed (km/s)
/
Latitude / Longitude
Inclination (degrees)
Orbital Period (minutes)
Azimuth
Elevation
Range (km)
Doppler Factor
iOS Compass Heading
iOS Angle

Next 30 passes for location: Hong Kong

Rise time Rise Azimuth (degrees) Set time Set Azimuth (degrees) Duration Max altitude (degrees)

No matching passes for this satellites